• In Deutschland
  • Länderverzeichnis
  • Für 7 Tage
  • Wassertemperatur
  • Satellitenkarten
  • Wetterkarte
  • Widgets
  • user-avatar
    Anmelden

    Stündliche Wetter Meckenheim

    Heute, 16 Oktober, Dienstag

    Zeit Temperatur Niederschläge Wind Luftdruck Luftfeuchtigkeit
    00:00 +15°C° 0 mm 0 m/S 746 mmHg 76%
    01:00 +14°C° 0 mm 0 m/S 746 mmHg 77%
    02:00 +14°C° 0 mm 0 m/S 746 mmHg 78%
    03:00 +14°C° 0 mm 0 m/S 746 mmHg 78%
    04:00 +14°C° 0 mm 0 m/S 746 mmHg 79%
    05:00 +14°C° 0 mm 0 m/S 747 mmHg 79%
    06:00 +13°C° 0 mm 0 m/S 747 mmHg 79%
    07:00 +15°C° 0 mm 0 m/S 747 mmHg 73%
    08:00 +18°C° 0 mm 0 m/S 747 mmHg 66%
    09:00 +20°C° 0 mm 0 m/S 748 mmHg 59%
    10:00 +23°C° 0 mm 1 m/S 748 mmHg 55%
    11:00 +24°C° 0 mm 1 m/S 748 mmHg 51%
    12:00 +25°C° 0 mm 1 m/S 748 mmHg 47%
    13:00 +25°C° 0 mm 1 m/S 747 mmHg 50%
    14:00 +25°C° 0 mm 1 m/S 747 mmHg 53%
    15:00 +24°C° 0 mm 1 m/S 747 mmHg 55%
    16:00 +23°C° 0 mm 1 m/S 747 mmHg 61%
    17:00 +21°C° 0 mm 1 m/S 747 mmHg 66%
    18:00 +19°C° 0 mm 1 m/S 748 mmHg 72%
    19:00 +18°C° 0 mm 1 m/S 748 mmHg 74%
    20:00 +18°C° 0 mm 1 m/S 748 mmHg 76%
    21:00 +16°C° 0 mm 1 m/S 748 mmHg 78%
    22:00 +16°C° 0 mm 1 m/S 748 mmHg 79%
    23:00 +15°C° 0 mm 1 m/S 748 mmHg 80%

    Morgen, 17 Oktober, Mittwoch

    Zeit Temperatur Niederschläge Wind Luftdruck Luftfeuchtigkeit
    00:00 +15°C° 0 mm 1 m/S 748 mmHg 81%
    01:00 +15°C° 0 mm 1 m/S 748 mmHg 82%
    02:00 +15°C° 0 mm 1 m/S 747 mmHg 83%
    03:00 +14°C° 0 mm 1 m/S 747 mmHg 83%
    04:00 +14°C° 0 mm 1 m/S 747 mmHg 83%
    05:00 +14°C° 0 mm 1 m/S 747 mmHg 84%
    06:00 +14°C° 0 mm 1 m/S 747 mmHg 84%
    07:00 +16°C° 0 mm 1 m/S 748 mmHg 77%
    08:00 +16°C° 0 mm 0 m/S 748 mmHg 71%
    09:00 +18°C° 0 mm 0 m/S 748 mmHg 65%
    10:00 +21°C° 0 mm 1 m/S 748 mmHg 61%
    11:00 +23°C° 0 mm 1 m/S 747 mmHg 57%
    12:00 +24°C° 0 mm 1 m/S 747 mmHg 53%
    13:00 +23°C° 0 mm 1 m/S 747 mmHg 55%
    14:00 +23°C° 0 mm 1 m/S 747 mmHg 57%
    15:00 +23°C° 0 mm 1 m/S 746 mmHg 60%
    16:00 +21°C° 0 mm 1 m/S 747 mmHg 65%
    17:00 +20°C° 0 mm 1 m/S 747 mmHg 70%
    18:00 +18°C° 0 mm 1 m/S 747 mmHg 76%
    19:00 +16°C° 0 mm 1 m/S 747 mmHg 78%
    20:00 +16°C° 0 mm 1 m/S 747 mmHg 80%
    21:00 +16°C° 0 mm 1 m/S 747 mmHg 83%
    22:00 +15°C° 0 mm 1 m/S 747 mmHg 84%
    23:00 +15°C° 0 mm 1 m/S 747 mmHg 85%

    übermorgen, 18 Oktober, Donnerstag

    Zeit Temperatur Niederschläge Wind Luftdruck Luftfeuchtigkeit
    00:00 +14°C° 0 mm 0 m/S 747 mmHg 87%
    01:00 +14°C° 0 mm 1 m/S 747 mmHg 88%
    02:00 +14°C° 0 mm 1 m/S 747 mmHg 89%
    03:00 +14°C° 0 mm 1 m/S 747 mmHg 90%
    04:00 +14°C° 0 mm 1 m/S 748 mmHg 91%
    05:00 +13°C° 0 mm 1 m/S 748 mmHg 91%
    06:00 +13°C° 0 mm 1 m/S 748 mmHg 92%
    07:00 +15°C° 0 mm 1 m/S 748 mmHg 86%
    08:00 +16°C° 0 mm 2 m/S 748 mmHg 80%
    09:00 +18°C° 0 mm 2 m/S 749 mmHg 74%
    10:00 +19°C° 0 mm 2 m/S 749 mmHg 68%
    11:00 +20°C° 0 mm 2 m/S 749 mmHg 63%
    12:00 +21°C° 0 mm 3 m/S 749 mmHg 58%
    13:00 +21°C° 0 mm 3 m/S 749 mmHg 60%
    14:00 +21°C° 0 mm 3 m/S 749 mmHg 61%
    15:00 +20°C° 0 mm 3 m/S 748 mmHg 63%
    16:00 +19°C° 0 mm 2 m/S 749 mmHg 70%
    17:00 +17°C° 0 mm 2 m/S 749 mmHg 78%
    18:00 +16°C° 0 mm 2 m/S 749 mmHg 85%
    19:00 +15°C° 0 mm 2 m/S 750 mmHg 87%
    20:00 +15°C° 0 mm 2 m/S 750 mmHg 90%
    21:00 +14°C° 0 mm 2 m/S 750 mmHg 92%
    22:00 +14°C° 0 mm 2 m/S 750 mmHg 93%
    23:00 +13°C° 0 mm 1 m/S 751 mmHg 93%

    19 Oktober, Freitag

    Zeit Temperatur Niederschläge Wind Luftdruck Luftfeuchtigkeit
    00:00 +13°C° 0 mm 1 m/S 751 mmHg 94%
    01:00 +13°C° 0 mm 1 m/S 751 mmHg 94%
    02:00 +12°C° 0 mm 1 m/S 751 mmHg 95%
    03:00 +12°C° 0 mm 1 m/S 751 mmHg 95%
    04:00 +12°C° 0 mm 1 m/S 751 mmHg 95%
    05:00 +12°C° 0 mm 1 m/S 751 mmHg 95%
    06:00 +12°C° 0 mm 1 m/S 751 mmHg 95%
    07:00 +13°C° 0 mm 1 m/S 752 mmHg 89%
    08:00 +15°C° 0 mm 1 m/S 752 mmHg 84%
    09:00 +16°C° 0 mm 1 m/S 752 mmHg 78%
    10:00 +18°C° 0 mm 1 m/S 752 mmHg 74%
    11:00 +18°C° 0 mm 2 m/S 752 mmHg 70%
    12:00 +19°C° 0 mm 2 m/S 752 mmHg 65%
    13:00 +19°C° 0 mm 2 m/S 752 mmHg 67%
    14:00 +18°C° 0 mm 2 m/S 752 mmHg 68%
    15:00 +18°C° 0 mm 2 m/S 752 mmHg 70%
    16:00 +17°C° 0 mm 2 m/S 752 mmHg 75%
    17:00 +15°C° 0 mm 2 m/S 752 mmHg 80%
    18:00 +14°C° 0 mm 1 m/S 753 mmHg 84%
    19:00 +13°C° 0 mm 1 m/S 753 mmHg 86%
    20:00 +13°C° 0 mm 1 m/S 753 mmHg 87%
    21:00 +12°C° 0 mm 1 m/S 754 mmHg 88%
    22:00 +12°C° 0 mm 1 m/S 754 mmHg 88%
    23:00 +11°C° 0 mm 1 m/S 754 mmHg 89%

    20 Oktober, Samstag

    Zeit Temperatur Niederschläge Wind Luftdruck Luftfeuchtigkeit
    00:00 +11°C° 0 mm 1 m/S 754 mmHg 89%
    01:00 +10°C° 0 mm 1 m/S 754 mmHg 90%
    02:00 +10°C° 0 mm 1 m/S 754 mmHg 90%
    03:00 +9°C° 0 mm 1 m/S 754 mmHg 90%
    04:00 +9°C° 0 mm 1 m/S 755 mmHg 90%
    05:00 +9°C° 0 mm 1 m/S 755 mmHg 90%
    06:00 +9°C° 0 mm 1 m/S 755 mmHg 89%
    07:00 +10°C° 0 mm 1 m/S 756 mmHg 82%
    08:00 +12°C° 0 mm 1 m/S 756 mmHg 75%
    09:00 +14°C° 0 mm 1 m/S 756 mmHg 68%
    10:00 +15°C° 0 mm 1 m/S 756 mmHg 61%
    11:00 +16°C° 0 mm 1 m/S 756 mmHg 55%
    12:00 +18°C° 0 mm 1 m/S 756 mmHg 48%
    13:00 +18°C° 0 mm 1 m/S 756 mmHg 49%
    14:00 +16°C° 0 mm 1 m/S 756 mmHg 50%
    15:00 +16°C° 0 mm 1 m/S 755 mmHg 51%
    16:00 +14°C° 0 mm 1 m/S 756 mmHg 55%
    17:00 +12°C° 0 mm 1 m/S 756 mmHg 59%
    18:00 +10°C° 0 mm 1 m/S 756 mmHg 63%
    19:00 +10°C° 0 mm 1 m/S 756 mmHg 64%
    20:00 +8°C° 0 mm 0 m/S 756 mmHg 65%
    21:00 +8°C° 0 mm 0 m/S 756 mmHg 66%
    22:00 +8°C° 0 mm 0 m/S 756 mmHg 67%
    23:00 +7°C° 0 mm 0 m/S 756 mmHg 67%

    21 Oktober, Sonntag

    Zeit Temperatur Niederschläge Wind Luftdruck Luftfeuchtigkeit
    00:00 +7°C° 0 mm 0 m/S 756 mmHg 68%
    01:00 +7°C° 0 mm 0 m/S 756 mmHg 68%
    02:00 +7°C° 0 mm 0 m/S 756 mmHg 68%
    03:00 +7°C° 0 mm 0 m/S 756 mmHg 69%
    04:00 +7°C° 0 mm 0 m/S 756 mmHg 69%
    05:00 +6°C° 0 mm 0 m/S 756 mmHg 69%
    06:00 +6°C° 0 mm 0 m/S 756 mmHg 69%
    07:00 +8°C° 0 mm 0 m/S 756 mmHg 62%
    08:00 +11°C° 0 mm 0 m/S 756 mmHg 56%
    09:00 +13°C° 0 mm 0 m/S 756 mmHg 50%
    10:00 +14°C° 0 mm 0 m/S 756 mmHg 46%
    11:00 +18°C° 0 mm 1 m/S 755 mmHg 42%
    12:00 +19°C° 0 mm 1 m/S 755 mmHg 38%
    13:00 +17°C° 0 mm 0 m/S 755 mmHg 41%
    14:00 +17°C° 0 mm 0 m/S 754 mmHg 44%
    15:00 +16°C° 0 mm 0 m/S 754 mmHg 47%
    16:00 +14°C° 0 mm 0 m/S 754 mmHg 51%
    17:00 +12°C° 0 mm 0 m/S 754 mmHg 54%
    18:00 +11°C° 0 mm 0 m/S 754 mmHg 57%
    19:00 +10°C° 0 mm 0 m/S 754 mmHg 58%
    20:00 +10°C° 0 mm 0 m/S 754 mmHg 59%
    21:00 +10°C° 0 mm 0 m/S 754 mmHg 60%
    22:00 +9°C° 0 mm 0 m/S 754 mmHg 61%
    23:00 +9°C° 0 mm 0 m/S 754 mmHg 61%
    Mehr zeigen